TimeCDT,TemperatureF,Dew PointF,Humidity,Sea Level PressureIn,VisibilityMPH,Wind Direction,Wind SpeedMPH,Gust SpeedMPH,PrecipitationIn,Events,Conditions,WindDirDegrees,DateUTC
12:56 AM,59.0,57.9,96,29.97,6.0,West,4.6,-,N/A,,Overcast,260,2013-04-01 05:56:00
1:21 AM,59.0,57.2,94,29.94,8.0,West,5.8,-,N/A,,Overcast,280,2013-04-01 06:21:00
1:56 AM,59.0,57.0,93,29.97,8.0,West,9.2,-,N/A,,Overcast,270,2013-04-01 06:56:00
2:56 AM,57.9,55.9,93,29.97,10.0,NW,6.9,-,N/A,,Mostly Cloudy,310,2013-04-01 07:56:00
3:03 AM,59.0,57.2,94,29.95,9.0,NW,5.8,-,N/A,,Mostly Cloudy,320,2013-04-01 08:03:00
3:56 AM,57.9,55.0,90,29.98,10.0,WNW,8.1,-,N/A,,Mostly Cloudy,300,2013-04-01 08:56:00
4:04 AM,57.2,55.4,94,29.95,10.0,NW,5.8,-,N/A,,Scattered Clouds,310,2013-04-01 09:04:00
4:27 AM,57.2,55.4,94,29.95,9.0,NW,4.6,-,N/A,,Mostly Cloudy,310,2013-04-01 09:27:00
4:56 AM,57.0,55.0,93,29.99,8.0,NW,3.5,-,N/A,,Overcast,320,2013-04-01 09:56:00
5:56 AM,57.0,55.0,93,30.03,10.0,NNW,3.5,-,N/A,,Overcast,330,2013-04-01 10:56:00
6:21 AM,57.2,55.4,94,30.01,10.0,NNW,3.5,-,N/A,,Overcast,330,2013-04-01 11:21:00
6:56 AM,57.0,54.0,89,30.06,10.0,NNW,6.9,-,N/A,,Overcast,330,2013-04-01 11:56:00
7:13 AM,57.2,53.6,88,30.04,10.0,North,6.9,-,N/A,,Overcast,350,2013-04-01 12:13:00
7:29 AM,57.2,55.4,94,30.04,10.0,North,3.5,-,N/A,,Overcast,350,2013-04-01 12:29:00
7:32 AM,57.2,55.4,94,30.04,10.0,North,4.6,-,N/A,,Overcast,350,2013-04-01 12:32:00
7:40 AM,57.2,53.6,88,30.05,10.0,North,3.5,-,N/A,,Overcast,350,2013-04-01 12:40:00
7:48 AM,57.2,53.6,88,30.05,10.0,North,3.5,-,N/A,,Overcast,360,2013-04-01 12:48:00
7:56 AM,57.0,54.0,89,30.08,10.0,NNW,3.5,-,N/A,,Mostly Cloudy,340,2013-04-01 12:56:00
8:34 AM,59.0,55.4,88,30.06,10.0,NNW,6.9,-,N/A,,Overcast,340,2013-04-01 13:34:00
8:53 AM,59.0,53.6,82,30.06,10.0,North,8.1,-,N/A,,Overcast,360,2013-04-01 13:53:00
8:56 AM,59.0,54.0,83,30.09,10.0,North,5.8,-,N/A,,Overcast,10,2013-04-01 13:56:00
9:06 AM,59.0,53.6,82,30.07,10.0,NNW,6.9,-,N/A,,Overcast,330,2013-04-01 14:06:00
9:56 AM,63.0,53.1,70,30.11,10.0,NW,5.8,-,N/A,,Scattered Clouds,320,2013-04-01 14:56:00
10:56 AM,64.9,52.0,63,30.11,10.0,NW,6.9,-,N/A,,Partly Cloudy,310,2013-04-01 15:56:00
11:56 AM,68.0,48.0,49,30.12,10.0,WNW,8.1,-,N/A,,Partly Cloudy,300,2013-04-01 16:56:00
12:56 PM,71.1,44.1,38,30.12,10.0,Variable,5.8,-,N/A,,Partly Cloudy,0,2013-04-01 17:56:00
1:56 PM,72.0,41.0,33,30.09,10.0,NW,8.1,-,N/A,,Clear,320,2013-04-01 18:56:00
2:56 PM,73.9,41.0,30,30.07,10.0,Variable,5.8,-,N/A,,Clear,0,2013-04-01 19:56:00
3:56 PM,73.9,42.1,32,30.04,10.0,Variable,5.8,-,N/A,,Clear,0,2013-04-01 20:56:00
4:56 PM,75.0,41.0,29,30.04,10.0,Calm,Calm,-,N/A,,Partly Cloudy,0,2013-04-01 21:56:00
5:56 PM,73.9,41.0,30,30.04,10.0,Variable,3.5,-,N/A,,Clear,0,2013-04-01 22:56:00
6:56 PM,70.0,43.0,38,30.05,10.0,East,3.5,-,N/A,,Clear,80,2013-04-01 23:56:00
7:56 PM,63.0,46.9,56,30.06,10.0,Calm,Calm,-,N/A,,Clear,0,2013-04-02 00:56:00
8:56 PM,61.0,46.9,60,30.09,10.0,Calm,Calm,-,N/A,,Clear,0,2013-04-02 01:56:00
9:56 PM,57.0,48.0,72,30.09,10.0,Calm,Calm,-,N/A,,Clear,0,2013-04-02 02:56:00
10:56 PM,53.1,48.0,83,30.11,10.0,Calm,Calm,-,N/A,,Clear,0,2013-04-02 03:56:00
11:56 PM,52.0,48.0,86,30.11,10.0,WNW,5.8,-,N/A,,Clear,300,2013-04-02 04:56:00